Stations météo

réclame
Mon MeteoGroup
Huesca, Espagne (8094): Température de l'air & dewpoint: 13.12.2018 15:00:00 - 19.12.2018 15:00:00 (CET)Huesca, Espagne (8094): Vitesse du vent: 13.12.2018 15:00:00 - 19.12.2018 15:00:00 (CET)Huesca, Espagne (8094): Direction du vent: 13.12.2018 15:00:00 - 19.12.2018 15:00:00 (CET)Huesca, Espagne (8094): reduced air pressure: 13.12.2018 15:00:00 - 19.12.2018 15:00:00 (CET)Huesca, Espagne (8094): visibility: 13.12.2018 15:00:00 - 19.12.2018 15:00:00 (CET)Huesca, Espagne (8094): Quantités de précipitations: 13.12.2018 15:00:00 - 19.12.2018 15:00:00 (CET)
Date & Time tt [°C] td [°C] ff [km/h] ff [knt] dd ppp [hPa] vv [km] rr [mm]
19.12.2018 15:00:00 - - - - - - - -
19.12.2018 14:00:00 11,2 4,9 8 4 W 1020,1 - 0,0
19.12.2018 13:00:00 10,7 5,2 11 6 W 1020,5 45 -
19.12.2018 12:00:00 9,6 6,5 5 3 W 1021,4 - 0,0
19.12.2018 11:00:00 7,1 4,9 5 3 W 1021,9 - 0,0
19.12.2018 10:00:00 5,5 3,7 4 2 W 1021,8 45 -
19.12.2018 09:00:00 4,7 2,7 4 2 WSW 1021,1 - 0,0
19.12.2018 08:00:00 5,5 3,2 2 1 WNW 1021,1 - 0,0
19.12.2018 07:00:00 5,7 3,5 4 2 WNW 1020,6 - -
19.12.2018 06:00:00 5,4 3,4 2 1 N 1020,2 - 0,0
19.12.2018 05:00:00 5,2 3,2 2 1 SE 1020,6 - 0,0
19.12.2018 04:00:00 5,5 2,8 4 2 NNE 1020,9 - -
19.12.2018 03:00:00 5,7 3,4 4 2 NW 1021,3 - 0,0
19.12.2018 02:00:00 6,6 3,2 4 2 ESE 1021,3 - 0,0
19.12.2018 01:00:00 6,8 3,2 9 5 E 1021,3 - -
19.12.2018 00:00:00 6,6 3,6 11 6 E 1021,9 - 0,0
18.12.2018 23:00:00 6,3 3,8 8 4 E 1022,3 - 0,0
18.12.2018 22:00:00 6,6 3,9 11 6 E 1022,4 - -
18.12.2018 21:00:00 6,4 3,9 5 3 E 1022,8 - 0,0
18.12.2018 20:00:00 5,9 3,9 11 6 E 1022,6 - 0,0
18.12.2018 19:00:00 6,3 4,3 4 2 NE 1023,0 - -
18.12.2018 18:00:00 6,6 4,6 8 4 E 1022,4 - 0,0
18.12.2018 17:00:00 7,4 4,7 8 4 E 1021,9 - 0,0
18.12.2018 16:00:00 8,3 4,5 15 8 ESE 1021,5 75 -
18.12.2018 15:00:00 8,9 3,3 18 10 ESE 1021,4 - 0,0
18.12.2018 14:00:00 8,9 2,7 21 11 ESE 1021,9 - 0,0
18.12.2018 13:00:00 8,2 2,6 16 9 ESE 1023,1 75 -
18.12.2018 12:00:00 6,7 2,0 11 6 SE 1025,0 - 0,0
18.12.2018 11:00:00 4,5 0,6 5 3 ESE 1026,2 - 0,0
18.12.2018 10:00:00 3,2 0,1 8 4 E 1026,4 75 -
18.12.2018 09:00:00 1,7 -0,7 11 6 E 1026,7 - 0,0
18.12.2018 08:00:00 1,8 0,2 9 5 E 1027,1 - 0,0
18.12.2018 07:00:00 1,8 0,3 9 5 E 1027,5 - -
18.12.2018 06:00:00 2,1 0,8 11 6 E 1027,6 - 0,0
18.12.2018 05:00:00 2,1 0,9 15 8 E 1027,8 - 0,0
18.12.2018 04:00:00 2,0 1,3 9 5 E 1029,3 - -
18.12.2018 03:00:00 2,2 1,5 11 6 ESE 1029,8 - 0,0
18.12.2018 02:00:00 2,7 1,7 9 5 E 1029,6 - 0,0
18.12.2018 01:00:00 3,3 2,1 11 6 E 1029,3 - -
18.12.2018 00:00:00 3,7 2,1 9 5 E 1030,3 - 0,0
17.12.2018 23:00:00 3,9 2,6 8 4 ENE 1030,3 - 0,0
17.12.2018 22:00:00 3,8 2,5 8 4 E 1030,4 - -
17.12.2018 21:00:00 4,4 3,1 5 3 E 1030,3 - 0,0
17.12.2018 20:00:00 3,7 2,2 2 1 NNE 1030,5 - 0,0
17.12.2018 19:00:00 4,4 2,6 4 2 SE 1030,0 - -
17.12.2018 18:00:00 5,9 2,9 5 3 WNW 1029,5 - 0,0
17.12.2018 17:00:00 7,4 3,8 5 3 W 1029,4 - 0,0
17.12.2018 16:00:00 8,4 3,6 8 4 W 1028,7 75 -
17.12.2018 15:00:00 7,4 4,0 8 4 W 1028,9 - 0,0
17.12.2018 14:00:00 7,7 4,1 8 4 W 1028,1 - 0,0
17.12.2018 13:00:00 8,3 4,1 9 5 W 1027,9 80 -
17.12.2018 12:00:00 7,8 3,3 11 6 W 1028,6 - 0,0
17.12.2018 11:00:00 6,6 3,0 9 5 WNW 1028,9 - 0,0
17.12.2018 10:00:00 5,2 2,4 8 4 NW 1028,6 75 -
17.12.2018 09:00:00 4,0 1,5 8 4 NNW 1028,3 - 0,0
17.12.2018 08:00:00 3,1 1,5 9 5 W 1028,4 - 0,0
17.12.2018 07:00:00 3,4 1,4 8 4 WNW 1027,3 - -
17.12.2018 06:00:00 4,0 1,2 5 3 W 1026,1 - 0,0
17.12.2018 05:00:00 4,9 1,4 8 4 NW 1025,2 - 0,0
17.12.2018 04:00:00 3,9 1,8 8 4 W 1025,4 - -
17.12.2018 03:00:00 4,8 2,2 11 6 WNW 1024,5 - 0,0
17.12.2018 02:00:00 5,1 2,4 11 6 WNW 1024,4 - 0,0
17.12.2018 01:00:00 5,4 2,6 13 7 W 1023,3 - -
17.12.2018 00:00:00 5,2 2,5 11 6 WNW 1023,8 - 0,0
16.12.2018 23:00:00 5,9 2,7 9 5 W 1023,1 - 0,0
16.12.2018 22:00:00 5,9 3,6 8 4 W 1022,2 - -
16.12.2018 21:00:00 7,1 3,5 8 4 WNW 1020,5 - 0,0
16.12.2018 20:00:00 7,2 3,6 13 7 NNW 1019,8 - 0,0
16.12.2018 19:00:00 8,0 7,2 9 5 W 1018,1 - -
16.12.2018 18:00:00 8,4 7,5 5 3 WNW 1017,1 - 0,0
16.12.2018 17:00:00 9,1 8,0 4 2 W 1016,7 - 0,0
16.12.2018 16:00:00 9,3 8,4 4 2 NNW 1016,3 60 -
16.12.2018 15:00:00 9,7 8,5 4 2 WSW 1015,9 - 0,0
16.12.2018 14:00:00 10,0 8,4 4 2 SSE 1015,7 - 0,0
16.12.2018 13:00:00 9,0 8,4 4 2 ENE 1016,7 60 -
16.12.2018 12:00:00 8,5 7,9 2 1 W 1018,0 - 0,4
16.12.2018 11:00:00 7,9 7,5 2 1 W 1018,5 - 1,0
16.12.2018 10:00:00 7,6 7,3 5 3 WSW 1018,4 8 -
16.12.2018 09:00:00 7,3 6,9 4 2 W 1018,2 - 0,6
16.12.2018 08:00:00 7,4 6,8 4 2 W 1018,2 - 0,6
16.12.2018 07:00:00 7,5 6,6 4 2 W 1018,5 - -
16.12.2018 06:00:00 7,5 6,4 4 2 WNW 1018,3 - 0,0
16.12.2018 05:00:00 7,5 6,4 4 2 W 1018,7 - 0,0
16.12.2018 04:00:00 7,3 6,6 5 3 NW 1019,3 - -
16.12.2018 03:00:00 6,7 6,0 5 3 NW 1020,1 - 0,0
16.12.2018 02:00:00 7,2 6,1 4 2 WNW 1020,4 - 0,0
16.12.2018 01:00:00 7,3 6,1 5 3 WSW 1020,8 - -
16.12.2018 00:00:00 7,6 6,4 4 2 W 1021,0 - 0,0
15.12.2018 23:00:00 7,7 6,2 4 2 WSW 1021,0 - 0,0
15.12.2018 22:00:00 7,7 6,2 4 2 NNW 1021,1 - -
15.12.2018 21:00:00 8,0 6,3 5 3 NW 1021,2 - 0,0
15.12.2018 20:00:00 8,0 6,5 4 2 NW 1021,4 - 0,0
15.12.2018 19:00:00 8,5 6,6 4 2 NW 1021,4 - -
15.12.2018 18:00:00 8,7 6,8 5 3 W 1021,4 - 0,0
15.12.2018 17:00:00 9,5 7,1 9 5 WSW 1021,0 - 0,0
15.12.2018 16:00:00 10,3 7,5 4 2 W 1020,5 75 -
15.12.2018 15:00:00 10,3 7,4 4 2 W 1020,8 - 0,0
15.12.2018 14:00:00 10,6 7,1 8 4 W 1021,1 - 0,0
15.12.2018 13:00:00 9,3 6,7 5 3 W 1022,2 75 -
15.12.2018 12:00:00 7,9 5,7 5 3 W 1023,1 - 0,0
15.12.2018 11:00:00 6,4 4,4 5 3 W 1023,8 - 0,0
15.12.2018 10:00:00 4,6 3,4 5 3 W 1023,7 75 -
15.12.2018 09:00:00 2,9 2,2 5 3 W 1023,2 - 0,0
15.12.2018 08:00:00 2,9 2,0 11 6 WSW 1023,2 - 0,0
15.12.2018 07:00:00 3,4 2,2 5 3 WSW 1022,9 - -
15.12.2018 06:00:00 3,4 2,2 5 3 W 1022,6 - 0,0
15.12.2018 05:00:00 3,2 2,0 8 4 W 1022,7 - 0,0
15.12.2018 04:00:00 4,0 2,2 5 3 WSW 1022,5 - -
15.12.2018 03:00:00 5,3 3,0 4 2 NW 1022,1 - 0,0
15.12.2018 02:00:00 5,6 3,4 8 4 W 1021,9 - 0,0
15.12.2018 01:00:00 5,7 3,4 8 4 WNW 1021,8 - -
15.12.2018 00:00:00 5,8 3,5 9 5 W 1021,3 - 0,0
14.12.2018 23:00:00 5,4 3,7 8 4 W 1021,2 - 0,0
14.12.2018 22:00:00 5,5 3,5 5 3 W 1021,0 - -
14.12.2018 21:00:00 6,2 4,0 5 3 WNW 1020,5 - 0,0
14.12.2018 20:00:00 6,6 4,4 9 5 WNW 1020,1 - 0,0
14.12.2018 19:00:00 6,7 4,4 8 4 W 1019,6 - -
14.12.2018 18:00:00 7,8 4,4 9 5 WNW 1018,6 - 0,0
14.12.2018 17:00:00 9,4 4,8 11 6 WNW 1017,6 - 0,0
14.12.2018 16:00:00 10,5 4,2 13 7 WNW 1017,1 75 -
14.12.2018 15:00:00 11,1 5,4 13 7 W 1016,1 - 0,0
14.12.2018 14:00:00 11,5 6,0 15 8 WNW 1015,7 - 0,0
14.12.2018 13:00:00 10,7 5,9 16 9 WNW 1015,7 75 -
14.12.2018 12:00:00 10,1 5,7 16 9 WNW 1015,7 - 0,2
14.12.2018 11:00:00 8,8 5,4 15 8 WNW 1015,9 - 0,0
14.12.2018 10:00:00 7,4 4,7 11 6 WNW 1015,4 75 -
14.12.2018 09:00:00 6,9 4,7 13 7 W 1014,4 - 0,0
14.12.2018 08:00:00 6,7 4,5 15 8 WNW 1012,9 - 0,0
14.12.2018 07:00:00 6,2 4,0 9 5 WNW 1012,3 - -
14.12.2018 06:00:00 7,0 3,8 8 4 WNW 1011,3 - 0,0
14.12.2018 05:00:00 7,0 3,4 8 4 NW 1011,0 - 0,0
14.12.2018 04:00:00 6,6 4,1 8 4 WNW 1010,9 - -
14.12.2018 03:00:00 7,0 4,3 11 6 WNW 1010,2 - 0,0
14.12.2018 02:00:00 7,7 4,1 9 5 NW 1009,2 - 0,0
14.12.2018 01:00:00 7,5 4,1 11 6 WNW 1008,3 - -
14.12.2018 00:00:00 7,3 4,1 11 6 WNW 1008,2 - 0,0
13.12.2018 23:00:00 7,0 3,6 11 6 WNW 1007,3 - 0,0
13.12.2018 22:00:00 7,0 3,8 8 4 WNW 1006,5 - -
13.12.2018 21:00:00 6,7 4,2 8 4 WNW 1006,2 - 0,0
13.12.2018 20:00:00 6,3 4,5 9 5 WNW 1005,5 - 0,0
13.12.2018 19:00:00 6,1 4,7 9 5 NW 1005,0 - -
13.12.2018 18:00:00 6,0 6,0 8 4 WSW 1004,8 - 0,0
13.12.2018 17:00:00 5,9 5,9 5 3 NW 1005,3 - 0,8
13.12.2018 16:00:00 5,6 5,6 4 2 W 1005,6 - -
13.12.2018 15:00:00 6,4 6,4 4 2 WSW 1004,9 - 0,6

tt = Température de l'air
td = dewpoint
ff = Vitesse du vent
dd = Direction du vent
ppp = reduced air pressure
vv = visibility
rr = Quantités de précipitations

stations d'obs. à proximité